Date,Time,Air Temperature,Dewpoint,Windchill,Heat Index,RH,3m Max Wind Speed,3m Mean Wind Speed,3m Wind Direction,Rain,Solar Radiation
,,F,F,F,F,%,MPH,MPH,deg,in,MJ/m^2
2024-04-16,22:45,43,25.3,,43,49.3,4.4,2.6,183,0.0,0
2024-04-16,22:50,42.1,25.2,,42.1,50.7,4.9,3.5,146,0.0,0
2024-04-16,22:55,41.8,25.3,,41.8,51.7,4.9,3.8,149,0.0,0
2024-04-16,23:00,41.8,25.5,,41.8,52.0,5.8,4,165,0.0,0
2024-04-16,23:05,42,25.6,,42,51.8,5.5,3.6,193,0.0,0
2024-04-16,23:10,42.2,25.6,,42.2,51.6,8.3,4.8,169,0.0,0
2024-04-16,23:15,41.9,26,,41.9,52.9,6.8,4,162,0.0,0
2024-04-16,23:20,42.1,26,,42.1,52.6,4,2.6,147,0.0,0
2024-04-16,23:25,42.1,26.1,,42.1,52.8,4,2.7,171,0.0,0
2024-04-16,23:30,42.8,26.3,,42.8,51.8,3.7,2.8,149,0.0,0
2024-04-16,23:35,41.2,26,,41.2,54.4,4.3,3.6,157,0.0,0
2024-04-16,23:40,40.3,25.2,,40.3,54.4,3,1.4,171,0.0,0
2024-04-16,23:45,41.1,25.5,,41.1,53.4,4,2.3,130,0.0,0
2024-04-16,23:50,40.7,25.4,,40.7,54.1,4.7,3.1,137,0.0,0
2024-04-16,23:55,40.5,25.4,,40.5,54.6,3.6,2.4,189,0.0,0
2024-04-17,00:00,39.8,24.9,,39.8,55,1.9,1,72,0.0,0
2024-04-17,00:05,39.7,25.3,,39.7,56.0,2,1.1,161,0.0,0
2024-04-17,00:10,39.4,25.2,,39.4,56.4,3.8,1.4,6,0.0,0
2024-04-17,00:15,41.1,25.1,,41.1,52.5,7.4,3.8,155,0.0,0
2024-04-17,00:20,41.6,26,,41.6,53.5,13,5.2,176,0.0,0
2024-04-17,00:25,42.7,26.6,,42.7,52.6,12.7,8.5,171,0.0,0
2024-04-17,00:30,42.8,26.9,,42.8,53.1,16.9,9,174,0.0,0
2024-04-17,00:35,42.8,27.1,,42.8,53.5,14,8.5,173,0.0,0
2024-04-17,00:40,43.1,27.1,,43.1,53.0,12.3,8.4,171,0.0,0
2024-04-17,00:45,42.3,27.1,,42.3,54.6,11.2,4.4,148,0.0,0
2024-04-17,00:50,39.5,26.7,,39.5,59.9,3.7,1.8,330,0.0,0
2024-04-17,00:55,38.9,26.3,,38.9,60.2,6.3,3.6,335,0.0,0
2024-04-17,01:00,38.3,26.1,,38.3,61.2,7.1,4.7,331,0.0,0
2024-04-17,01:05,38.1,26.1,,38.1,61.6,6.4,2.6,323,0.0,0
2024-04-17,01:10,37.8,26,,37.8,62.0,3.5,2,333,0.0,0
2024-04-17,01:15,37.9,26,,37.9,61.9,3.9,2.3,351,0.0,0
2024-04-17,01:20,37.8,25.7,,37.8,61.3,2.4,1.5,233,0.0,0
2024-04-17,01:25,37.3,25.7,,37.3,62.5,2.6,1.1,164,0.0,0
2024-04-17,01:30,36.9,25.5,,36.9,63.1,2,1.1,230,0.0,0
2024-04-17,01:35,37.7,25.5,,37.7,61.1,4.2,1.6,56,0.0,0
2024-04-17,01:40,37.7,25.6,,37.7,61.2,3.7,2.8,103,0.0,0
2024-04-17,01:45,37.8,25.7,,37.8,61.4,4.2,2.6,127,0.0,0
2024-04-17,01:50,37.9,25.6,,37.9,60.8,3.5,1.7,3,0.0,0
2024-04-17,01:55,37.1,25.7,,37.1,63.1,3.1,2.3,341,0.0,0
2024-04-17,02:00,36.5,25.5,,36.5,63.9,1.6,0.9,258,0.0,0
2024-04-17,02:05,36,25.4,,36,65.0,3.6,1.4,211,0.0,0
2024-04-17,02:10,35.4,24.9,,35.4,65.1,3.2,1.7,173,0.0,0
2024-04-17,02:15,34.4,24.3,,34.4,66.4,3,2,138,0.0,0
2024-04-17,02:20,35,24.5,,35,65.2,5.4,3.5,167,0.0,0
2024-04-17,02:25,34.5,24.3,,34.5,66.0,4,1.8,152,0.0,0
2024-04-17,02:30,34.7,24.3,,34.7,65.4,1.7,0.8,147,0.0,0
2024-04-17,02:35,35.1,24.6,,35.1,65.4,3.6,1.2,342,0.0,0
2024-04-17,02:40,35.1,24.5,,35.1,65.2,3.1,1.7,217,0.0,0
2024-04-17,02:45,36,25,,36,63.9,3.6,1.5,120,0.0,0
2024-04-17,02:50,35.2,25.1,,35.2,66.1,2,0.9,351,0.0,0
2024-04-17,02:55,35.2,25.1,,35.2,66.3,3.7,2.7,332,0.0,0
2024-04-17,03:00,35.4,24.9,,35.4,65.2,2.8,2.4,316,0.0,0
2024-04-17,03:05,34.6,24.6,,34.6,66.6,2.6,2,341,0.0,0
2024-04-17,03:10,33.3,24.1,,33.3,68.6,2.4,1.5,242,0.0,0
2024-04-17,03:15,33.4,24,,33.4,68.1,2.9,1.5,248,0.0,0
2024-04-17,03:20,33.9,24,,33.9,66.7,3.5,2.5,287,0.0,0
2024-04-17,03:25,34.2,24.3,,34.2,66.9,4.2,2.7,322,0.0,0
2024-04-17,03:30,33.9,24.5,,33.9,68.3,4.5,3,345,0.0,0
2024-04-17,03:35,32.5,24.2,,32.5,71.2,2.3,1.3,316,0.0,0
2024-04-17,03:40,33.4,24,,33.4,68.1,3,2,342,0.0,0
2024-04-17,03:45,34.2,24.4,,34.2,67.1,2.4,1.4,23,0.0,0
2024-04-17,03:50,34.6,25,,34.6,67.5,3.7,1.8,359,0.0,0
2024-04-17,03:55,33.6,24.5,,33.6,69.0,3.4,2.3,348,0.0,0
2024-04-17,04:00,34.5,24.9,,34.5,67.6,3.4,1.6,341,0.0,0
2024-04-17,04:05,34,25,,34,69.1,3,1.9,7,0.0,0
2024-04-17,04:10,34.3,25.1,,34.3,68.6,5.2,1.8,75,0.0,0
2024-04-17,04:15,32.9,25,,32.9,72.2,1.3,0.9,149,0.0,0
2024-04-17,04:20,33,24.5,,33,70.7,3.4,1.9,243,0.0,0
2024-04-17,04:25,33,24.6,,33,71.1,3.8,2.3,192,0.0,0
2024-04-17,04:30,32.6,24.5,,32.6,72.0,1.9,1.3,163,0.0,0
2024-04-17,04:35,32.9,24.6,,32.9,71.2,1.5,0.9,18,0.0,0
2024-04-17,04:40,34.4,24.9,,34.4,67.8,2.5,1.2,111,0.0,0
2024-04-17,04:45,33.6,25.2,,33.6,70.9,2.8,1.7,129,0.0,0
2024-04-17,04:50,30.8,24.4,,30.8,76.9,5.1,3.5,185,0.0,0
2024-04-17,04:55,30.8,23.4,,30.8,73.7,4.1,2.6,243,0.0,0
2024-04-17,05:00,31,23.7,,31,74.1,3.5,2,203,0.0,0
2024-04-17,05:05,30.9,23.2,,30.9,72.9,2.9,1.7,300,0.0,0
2024-04-17,05:10,30.2,23.1,,30.2,74.8,2.3,1.5,153,0.0,0
2024-04-17,05:15,29.6,22.9,,29.6,75.7,2.5,1.9,130,0.0,0
2024-04-17,05:20,30.8,22.8,,30.8,71.9,2.6,1.8,80,0.0,0
2024-04-17,05:25,30.3,23,,30.3,73.9,2.6,1.3,84,0.0,0
2024-04-17,05:30,30.2,22.9,,30.2,73.9,2.6,1.1,355,0.0,0
2024-04-17,05:35,30.2,22.9,,30.2,73.9,2.5,1.9,192,0.0,0
2024-04-17,05:40,29.3,22.7,,29.3,76.1,2.5,1.5,185,0.0,0
2024-04-17,05:45,28.8,22.3,,28.8,76.3,4.1,1.7,192,0.0,0
2024-04-17,05:50,29.3,22.3,,29.3,75.0,1.8,1,125,0.0,0
2024-04-17,05:55,28.9,22.3,,28.9,76.2,1.7,1,216,0.0,0
2024-04-17,06:00,28.5,22.3,,28.5,77.2,1.9,1.4,223,0.0,0.00018
2024-04-17,06:05,28.3,22.3,,28.3,78.2,1.8,1.3,275,0.0,0.0006
2024-04-17,06:10,28.3,22.1,,28.3,77.2,2.6,2.1,201,0.0,0.00114
2024-04-17,06:15,29,22.3,,29,75.9,3.8,3.2,220,0.0,0.00174
2024-04-17,06:20,29.3,22.7,,29.3,76.0,4.6,3.2,262,0.0,0.00234
2024-04-17,06:25,28.7,22.4,,28.7,77.3,2.3,1.5,263,0.0,0.00294
2024-04-17,06:30,30,23.1,,30,75.2,2.3,1.4,262,0.0,0.00546
2024-04-17,06:35,30.8,23.7,,30.8,74.5,5.3,3.4,284,0.0,0.01668
2024-04-17,06:40,31.9,24.4,,31.9,73.5,4,2.8,283,0.0,0.0183
2024-04-17,06:45,31.6,25.2,,31.6,76.7,5.7,2.9,253,0.0,0.02142
2024-04-17,06:50,31.2,25.2,,31.2,78.0,4.5,2.7,286,0.0,0.02508
2024-04-17,06:55,31.7,25.6,,31.7,77.8,3.8,2.6,328,0.0,0.02874
2024-04-17,07:00,32.4,26.1,,32.4,77.4,3.8,1.9,308,0.0,0.03258
2024-04-17,07:05,33,26.6,,33,77.1,3.8,2.5,191,0.0,0.0366
2024-04-17,07:10,34.1,27.1,,34.1,75.4,5.1,3.2,199,0.0,0.04074
2024-04-17,07:15,35.6,27.8,,35.6,72.8,4.5,3,215,0.0,0.045
2024-04-17,07:20,36.5,28.3,,36.5,72.0,3.6,1.9,277,0.0,0.04938
2024-04-17,07:25,37.7,28.9,,37.7,70.5,2.6,1.2,0,0.0,0.05412
2024-04-17,07:30,38.6,29.4,,38.6,69.4,2.7,1.4,342,0.0,0.05892
2024-04-17,07:35,39.5,29.6,,39.5,67.5,2.9,1.6,322,0.0,0.06372
2024-04-17,07:40,40.2,29.9,,40.2,66.5,3,1.9,277,0.0,0.06888
2024-04-17,07:45,40.6,30.3,,40.6,66.5,3.9,2.8,280,0.0,0.0732
2024-04-17,07:50,41.8,30.4,,41.8,63.7,3,1.9,306,0.0,0.06594
2024-04-17,07:55,42.3,30.7,,42.3,63.4,6.5,3.4,341,0.0,0.06348
2024-04-17,08:00,42,30.4,,42,63.2,5.6,3.4,357,0.0,0.05292
2024-04-17,08:05,42.5,30.3,,42.5,61.7,4,2.8,347,0.0,0.07434
2024-04-17,08:10,43.5,31,,43.5,61.3,4.6,2.8,342,0.0,0.10404
2024-04-17,08:15,44,31.7,,44,61.7,5.6,3.4,343,0.0,0.1077
2024-04-17,08:20,44.7,32,,44.7,60.8,4.7,2.9,330,0.0,0.11256
2024-04-17,08:25,45.6,32,,45.6,58.9,4.4,2.7,333,0.0,0.11814
2024-04-17,08:30,46.3,32.4,,46.3,58.3,4.7,3,314,0.0,0.1236
2024-04-17,08:35,47.6,32.5,,47.6,55.7,4.1,2.3,322,0.0,0.12828
2024-04-17,08:40,48.6,33.1,,48.6,55.0,5,2.3,319,0.0,0.13686
2024-04-17,08:45,48.9,33.6,,48.9,55.3,6.8,3.3,320,0.0,0.14226
2024-04-17,08:50,49.8,33.7,,49.8,53.7,5.3,3,283,0.0,0.14628
2024-04-17,08:55,50.1,33.9,,50.1,53.5,5.4,2.8,318,0.0,0.15096
2024-04-17,09:00,51.6,34,,51.6,50.8,5,2.5,268,0.0,0.15606
2024-04-17,09:05,51.9,34,,51.9,50.2,4.1,2.6,299,0.0,0.1608
2024-04-17,09:10,52.9,34.4,,52.9,49.2,4.4,2.3,302,0.0,0.16566
2024-04-17,09:15,53,34.4,,53,49.2,5.2,2.5,323,0.0,0.16998
2024-04-17,09:20,54.2,34.4,,54.2,47.0,5.6,3.1,235,0.0,0.1743
2024-04-17,09:25,54.6,34.2,,54.6,45.9,5.2,2.7,246,0.0,0.17868
2024-04-17,09:30,55.9,34.6,,55.9,44.5,7.2,4.3,263,0.0,0.18288
2024-04-17,09:35,56.3,33.7,,56.3,42.4,10.3,5.1,260,0.0,0.1875
2024-04-17,09:40,56.6,32.7,,56.6,40.3,9.6,4.3,279,0.0,0.19158
2024-04-17,09:45,57.5,32.3,,57.5,38.4,7.8,4.9,257,0.0,0.19614
2024-04-17,09:50,57.3,32.6,,57.3,39.0,9.2,4.1,239,0.0,0.20064
2024-04-17,09:55,58,32.6,,58,38.2,12.4,7.9,212,0.0,0.20424
2024-04-17,10:00,57.9,32.4,,57.9,38.0,10.5,5.5,181,0.0,0.20742
2024-04-17,10:05,59.1,32.7,,59.1,36.8,15.3,4.9,220,0.0,0.21192
2024-04-17,10:10,58.2,32.4,,58.2,37.5,13.2,6.8,253,0.0,0.2154
2024-04-17,10:15,58.4,32.1,,58.4,36.8,10.4,6.2,264,0.0,0.22002
2024-04-17,10:20,58.6,31.7,,58.6,36,8.8,4.9,253,0.0,0.22368
2024-04-17,10:25,57.6,31.7,,57.6,37.2,7.7,4.1,328,0.0,0.2268
2024-04-17,10:30,59,32.3,,59,36.3,13.3,5.9,271,0.0,0.23028
2024-04-17,10:35,59.5,31.9,,59.5,35.1,13.2,7.5,268,0.0,0.2337
2024-04-17,10:40,58.7,31.5,,58.7,35.6,11.5,6.9,298,0.0,0.2367
2024-04-17,10:45,60,31.5,,60,34.0,11.7,5.7,322,0.0,0.2397
2024-04-17,10:50,59.4,31.5,,59.4,34.7,18.8,8.1,309,0.0,0.24264
2024-04-17,10:55,59.7,31.4,,59.7,34.1,15.7,8.4,298,0.0,0.24558
2024-04-17,11:00,59.4,31.3,,59.4,34.3,10.3,6.3,302,0.0,0.24816
2024-04-17,11:05,60.2,31.4,,60.2,33.5,13.4,7,270,0.0,0.25134
2024-04-17,11:10,61,31,,61,32.2,18.5,10.1,220,0.0,0.25386
2024-04-17,11:15,61.6,30.8,,61.6,31.3,18.6,6.5,276,0.0,0.25638
2024-04-17,11:20,60.8,31.2,,60.8,32.6,9.5,5.2,294,0.0,0.25848
2024-04-17,11:25,61.4,31.6,,61.4,32.5,18.6,8.2,255,0.0,0.26064
2024-04-17,11:30,61.7,31.2,,61.7,31.6,6.8,3.7,205,0.0,0.26238
2024-04-17,11:35,61.3,31,,61.3,31.8,12.4,5.7,311,0.0,0.26424
2024-04-17,11:40,62,31.4,,62,31.5,11.9,5.4,198,0.0,0.26652
2024-04-17,11:45,61.6,31.2,,61.6,31.7,13.4,8.1,265,0.0,0.26838
2024-04-17,11:50,61.5,31.4,,61.5,32.0,14.7,8.3,249,0.0,0.2697
2024-04-17,11:55,62.8,31.2,,62.8,30.3,12.8,6.1,179,0.0,0.27108
2024-04-17,12:00,63,31.1,,63,30.0,16.6,7,185,0.0,0.27258
2024-04-17,12:05,63.1,31.2,,63.1,30.0,18.2,8.7,259,0.0,0.2736
2024-04-17,12:10,62.8,31.2,,62.8,30.3,15.9,8.3,227,0.0,0.27456
2024-04-17,12:15,64.1,30.9,,64.1,28.7,18.9,9.1,270,0.0,0.2757
2024-04-17,12:20,64.4,30.8,,64.4,28.3,21.1,12.5,246,0.0,0.27648
2024-04-17,12:25,64.4,30.7,,64.4,28.1,20.6,10.6,242,0.0,0.27714
2024-04-17,12:30,65.1,30.8,,65.1,27.6,19.3,11.1,236,0.0,0.27738
2024-04-17,12:35,65.6,31.3,,65.6,27.7,23.6,11.5,234,0.0,0.27756
2024-04-17,12:40,65.3,30.8,,65.3,27.4,22.8,15.1,261,0.0,0.27888
2024-04-17,12:45,65.4,30.8,,65.4,27.2,16.1,10.8,264,0.0,0.27876
2024-04-17,12:50,65.9,31.4,,65.9,27.4,19.1,10.4,241,0.0,0.27864
2024-04-17,12:55,65.4,31.4,,65.4,28.0,23.3,13.1,260,0.0,0.2784
2024-04-17,13:00,64.4,30.5,,64.4,27.9,12.4,6.3,264,0.0,0.27732
2024-04-17,13:05,65.4,31.1,,65.4,27.7,14.3,9.2,260,0.0,0.27678
2024-04-17,13:10,64.5,30.6,,64.5,28.0,17.2,9.5,285,0.0,0.276
2024-04-17,13:15,65.6,31,,65.6,27.4,20.2,10.2,241,0.0,0.2757
2024-04-17,13:20,66.2,31.2,,66.2,26.9,19.6,11.1,201,0.0,0.2745
2024-04-17,13:25,65.5,31.4,,65.5,27.8,12.8,5.6,252,0.0,0.27306
2024-04-17,13:30,66.3,31.4,,66.3,27.1,18.2,10.2,240,0.0,0.27258
2024-04-17,13:35,66.3,31.2,,66.3,26.8,16.7,9.4,216,0.0,0.27096
2024-04-17,13:40,66.9,31.2,,66.9,26.3,22.4,11.9,214,0.0,0.26982
2024-04-17,13:45,67.1,31.5,,67.1,26.5,13.7,6.2,220,0.0,0.26868
2024-04-17,13:50,67.1,30.5,,67.1,25.5,19.2,11.6,239,0.0,0.26736
2024-04-17,13:55,67.9,30.2,,67.9,24.4,19.3,9.6,238,0.0,0.2661
2024-04-17,14:00,68.3,29.7,,68.3,23.7,25.8,15.1,265,0.0,0.26394
2024-04-17,14:05,68.1,29.4,,68.1,23.4,19.4,10.8,272,0.0,0.2622
2024-04-17,14:10,68.3,29.1,,68.3,23.0,26.2,8.9,231,0.0,0.26004
2024-04-17,14:15,69.4,29.1,,69.4,22.2,20,12.3,257,0.0,0.25794
2024-04-17,14:20,68.7,28.7,,68.7,22.4,20.6,10.8,260,0.0,0.2562
2024-04-17,14:25,68.1,28.1,,68.1,22.3,19.2,13.3,271,0.0,0.25362
2024-04-17,14:30,69.3,27.8,,69.3,21.2,21.4,15.1,269,0.0,0.25044
2024-04-17,14:35,69.6,27.8,,69.6,20.9,30.7,16.7,255,0.0,0.24822
2024-04-17,14:40,69.2,28,,69.2,21.3,22.3,14.7,246,0.0,0.24486
2024-04-17,14:45,68.9,27.8,,68.9,21.4,24.4,15.6,269,0.0,0.24192
2024-04-17,14:50,69,26.9,,69,20.5,21.5,14.6,273,0.0,0.23862
2024-04-17,14:55,69.9,27.7,,69.9,20.6,22.6,11.8,271,0.0,0.23598
2024-04-17,15:00,70,28.5,,70,21.2,24.9,14.7,242,0.0,0.23292
2024-04-17,15:05,69.5,28.3,,69.5,21.4,25.5,16.8,252,0.0,0.22962
2024-04-17,15:10,70.8,29,,70.8,21.1,20.4,10.3,257,0.0,0.22608
2024-04-17,15:15,69.7,28.3,,69.7,21.2,26.7,17.8,254,0.0,0.22272
2024-04-17,15:20,69.5,28.1,,69.5,21.2,20.8,13.3,245,0.0,0.21888
2024-04-17,15:25,69.8,28.3,,69.8,21.2,19.6,11.9,251,0.0,0.21498
2024-04-17,15:30,70.5,28.7,,70.5,21.0,28.2,16.5,270,0.0,0.21174
2024-04-17,15:35,69.7,28.7,,69.7,21.7,24.6,14.6,261,0.0,0.20748
2024-04-17,15:40,69.8,29.1,,69.8,21.9,27.4,16,246,0.0,0.2031
2024-04-17,15:45,69.7,30,,69.7,22.8,34.2,15.8,255,0.0,0.19914
2024-04-17,15:50,70.3,29.8,,70.3,22.2,23.1,13.7,244,0.0,0.19548
2024-04-17,15:55,69.3,29.9,,69.3,23.0,22.9,15.4,267,0.0,0.19128
2024-04-17,16:00,69.9,30.2,,69.9,22.7,22.9,13,239,0.0,0.1791
2024-04-17,16:05,69.7,29.5,,69.7,22.3,23,13.2,213,0.0,0.18306
2024-04-17,16:10,69.3,29.6,,69.3,22.7,16.2,9.7,224,0.0,0.17856
2024-04-17,16:15,70.6,30.1,,70.6,22.2,22.1,13.5,231,0.0,0.17046
2024-04-17,16:20,69.9,30,,69.9,22.6,21.5,15,221,0.0,0.16968
2024-04-17,16:25,69.8,29.7,,69.8,22.4,17.5,10.1,229,0.0,0.16386
2024-04-17,16:30,69.9,29.9,,69.9,22.5,16.6,10.4,276,0.0,0.159
2024-04-17,16:35,70.4,26.1,,70.4,19.0,21.2,14.7,268,0.0,0.15438
2024-04-17,16:40,70.6,25.8,,70.6,18.5,25.9,14.5,264,0.0,0.14928
2024-04-17,16:45,70,25.8,,70,18.9,25.9,16.3,284,0.0,0.14448
2024-04-17,16:50,69.3,25.2,,69.3,19.0,25.5,16.1,275,0.0,0.13956
2024-04-17,16:55,69.1,25,,69.1,19.0,28.1,17.8,276,0.0,0.13428
2024-04-17,17:00,69.2,25.1,,69.2,19.0,30.4,18.3,282,0.0,0.12888
2024-04-17,17:05,69.6,25.3,,69.6,18.9,22.3,13.7,285,0.0,0.12408
2024-04-17,17:10,69.3,25.2,,69.3,19.0,22.1,14.9,277,0.0,0.11892
2024-04-17,17:15,69.2,25.3,,69.2,19.1,28.3,17.2,274,0.0,0.11352
2024-04-17,17:20,68.9,25.4,,68.9,19.3,22.7,12.9,273,0.0,0.10806
2024-04-17,17:25,69.5,25.4,,69.5,19.0,25,14.5,264,0.0,0.10284
2024-04-17,17:30,69.3,25.3,,69.3,19.1,21.3,12.8,263,0.0,0.0975
2024-04-17,17:35,68.9,25.2,,68.9,19.2,26.1,15.3,272,0.0,0.09222
2024-04-17,17:40,68.7,25.1,,68.7,19.3,24.8,15,283,0.0,0.08712
2024-04-17,17:45,68.7,25.2,,68.7,19.4,17.8,12.1,261,0.0,0.08184
2024-04-17,17:50,68.8,24.9,,68.8,19.1,22.3,13.6,256,0.0,0.07668
2024-04-17,17:55,68.6,24.6,,68.6,18.9,20.4,15.1,261,0.0,0.07134
2024-04-17,18:00,68.1,24.1,,68.1,18.9,24.6,15.9,266,0.0,0.06618
2024-04-17,18:05,68.2,24,,68.2,18.7,23.7,12.6,253,0.0,0.06114
2024-04-17,18:10,68,24.3,,68,19.1,19.8,13.1,274,0.0,0.05634
2024-04-17,18:15,67.9,24.4,,67.9,19.3,24.9,13.5,275,0.0,0.0513
2024-04-17,18:20,67.7,24.5,,67.7,19.4,17.9,11.7,271,0.0,0.039
2024-04-17,18:25,67.3,24.5,,67.3,19.7,19.3,12.4,261,0.0,0.04224
2024-04-17,18:30,67.1,24.4,,67.1,19.8,17.2,12.2,272,0.0,0.0375
2024-04-17,18:35,66.8,24.5,,66.8,20.1,23.2,13.1,263,0.0,0.02256
2024-04-17,18:40,66.5,24.5,,66.5,20.3,18.1,12.6,268,0.0,0.02922
2024-04-17,18:45,66.5,24.5,,66.5,20.3,14.3,10.2,265,0.0,0.02586
2024-04-17,18:50,66.4,24.7,,66.4,20.6,16.4,12,264,0.0,0.02232
2024-04-17,18:55,66.2,25,,66.2,21.0,19.7,12,267,0.0,0.01866
2024-04-17,19:00,65.8,25,,65.8,21.2,14.4,9.3,269,0.0,0.01518
2024-04-17,19:05,65.6,24.6,,65.6,21.1,17,10.9,273,0.0,0.01182
2024-04-17,19:10,65.1,24.7,,65.1,21.5,16.2,10.9,269,0.0,0.00852
2024-04-17,19:15,64.6,24.5,,64.6,21.7,20.7,11.2,270,0.0,0.0051
2024-04-17,19:20,63.9,24.2,,63.9,21.9,19,10.8,269,0.0,0.0018
2024-04-17,19:25,63.5,24.1,,63.5,22.1,16.7,11.1,275,0.0,0.00096
2024-04-17,19:30,62.5,24,,62.5,22.8,11,7.5,277,0.0,0.00042
2024-04-17,19:35,62,23.8,,62,23.0,12.1,7.4,272,0.0,0.00006
2024-04-17,19:40,61.3,23.4,,61.3,23.2,10.5,6.6,283,0.0,0
2024-04-17,19:45,60.5,23.4,,60.5,23.9,8.3,5.9,277,0.0,0
2024-04-17,19:50,60.3,23.2,,60.3,23.9,9.9,7.1,284,0.0,0
2024-04-17,19:55,60.2,22.9,,60.2,23.6,9.4,5.9,295,0.0,0
2024-04-17,20:00,59.9,22.9,,59.9,23.9,10.2,6.3,300,0.0,0
2024-04-17,20:05,59.7,22.9,,59.7,24.0,10.3,6.6,296,0.0,0
2024-04-17,20:10,59.2,22.7,,59.2,24.4,7.9,5.1,285,0.0,0
2024-04-17,20:15,58.2,22.6,,58.2,25.1,5.6,3.8,280,0.0,0
2024-04-17,20:20,57,22.3,,57,25.9,3.8,2.3,266,0.0,0
2024-04-17,20:25,57,21.8,,57,25.4,6.2,2.4,293,0.0,0
2024-04-17,20:30,56.7,21.7,,56.7,25.5,4.8,2.8,293,0.0,0
2024-04-17,20:35,55.1,21.2,,55.1,26.5,3.1,2.4,249,0.0,0
2024-04-17,20:40,52.7,20.9,,52.7,28.5,5.4,4.1,204,0.0,0
2024-04-17,20:45,52.7,20.5,,52.7,28.0,6.7,4.7,222,0.0,0
2024-04-17,20:50,54.6,20.5,,54.6,26.1,9.2,5.8,249,0.0,0
2024-04-17,20:55,53.6,20.5,,53.6,27.1,11.3,5.7,226,0.0,0
2024-04-17,21:00,54.3,20.5,,54.3,26.4,9.6,6.1,233,0.0,0
2024-04-17,21:05,53.8,20.6,,53.8,27.0,7.6,4.2,227,0.0,0
2024-04-17,21:10,53.9,20.5,,53.9,26.9,11,3.4,250,0.0,0
2024-04-17,21:15,53,20.5,,53,27.7,7.3,2.8,239,0.0,0
2024-04-17,21:20,52.1,20.5,,52.1,28.7,5.2,3.5,206,0.0,0
2024-04-17,21:25,51.7,20.5,,51.7,29.0,5,2,210,0.0,0
2024-04-17,21:30,52.7,20.5,,52.7,28.0,8,4.2,233,0.0,0
2024-04-17,21:35,51,20.4,,51,29.7,5.3,3.8,209,0.0,0
2024-04-17,21:40,50.5,19.9,,50.5,29.6,5.3,3,183,0.0,0
2024-04-17,21:45,50.4,19.9,,50.4,29.7,4.9,3.6,173,0.0,0
2024-04-17,21:50,50,20,,50,30.3,3.5,2.6,139,0.0,0
2024-04-17,21:55,48.7,20,,48.7,31.8,4,2.6,125,0.0,0
2024-04-17,22:00,47.9,19.7,,47.9,32.4,3.8,3.1,141,0.0,0
2024-04-17,22:05,47.4,19.5,,47.4,32.7,5.4,4.1,168,0.0,0
2024-04-17,22:10,46.3,19.2,,46.3,33.7,4.5,3.8,160,0.0,0
2024-04-17,22:15,45.3,19.1,,45.3,34.8,4.5,2.9,145,0.0,0
2024-04-17,22:20,45.2,19,,45.2,34.8,4.5,3.5,156,0.0,0
2024-04-17,22:25,44.8,19,,44.8,35.3,4.1,3.4,161,0.0,0
2024-04-17,22:30,44,18.6,,44,35.8,3.7,2.4,157,0.0,0
2024-04-17,22:35,43,18.6,,43,37.1,2.2,1.4,137,0.0,0
2024-04-17,22:40,43.6,18.6,,43.6,36.3,3.4,3,126,0.0,0
2024-04-17,22:45,42.2,18.7,,42.2,38.6,6.7,4.4,159,0.0,0
2024-04-17,22:50,43,18.6,,43,37.2,9.2,7,173,0.0,0
2024-04-17,22:55,43.4,18.8,,43.4,37.0,8.3,5.9,179,0.0,0
2024-04-17,23:00,43.8,19.2,,43.8,37.1,8.1,6.6,178,0.0,0
2024-04-17,23:05,43.7,19.4,,43.7,37.5,7.7,5.9,187,0.0,0
2024-04-17,23:10,44.5,19.8,,44.5,36.9,9.3,7,187,0.0,0
2024-04-17,23:15,44.7,19.9,,44.7,36.9,7.7,5.4,181,0.0,0
2024-04-17,23:20,44.5,20.3,,44.5,37.7,6.4,5.1,177,0.0,0
2024-04-17,23:25,44.2,20.3,,44.2,38.1,7.8,5.6,180,0.0,0
2024-04-17,23:30,44.9,20.5,,44.9,37.6,9.1,7.1,177,0.0,0
2024-04-17,23:35,45,20.8,,45,37.7,7.6,6,189,0.0,0
2024-04-17,23:40,44.7,20.9,,44.7,38.3,6.6,4.4,208,0.0,0
2024-04-17,23:45,42.5,20.1,,42.5,40.5,5.5,3.8,343,0.0,0
2024-04-17,23:50,42.7,19.9,,42.7,39.8,3.6,1.7,303,0.0,0
2024-04-17,23:55,43,19.9,,43,39.3,1.7,0.8,200,0.0,0
2024-04-18,00:00,42.7,20.1,,42.7,40.1,2.2,1.6,197,0.0,0
2024-04-18,00:05,43.8,20.4,,43.8,38.9,4,2.8,188,0.0,0
2024-04-18,00:10,40.7,19.6,,40.7,42.4,5.7,4.8,179,0.0,0
2024-04-18,00:15,40.7,19.6,,40.7,42.5,5.3,4.5,185,0.0,0
2024-04-18,00:20,39.3,19.2,,39.3,44.1,3.9,2.1,184,0.0,0
2024-04-18,00:25,40,19.2,,40,43.0,1.4,0.7,155,0.0,0
2024-04-18,00:30,40.6,19.9,,40.6,43.1,4.7,2.6,141,0.0,0
2024-04-18,00:35,39.6,19.6,,39.6,44.3,5.7,3.4,145,0.0,0
2024-04-18,00:40,39.4,19.5,,39.4,44.5,3.7,3.1,148,0.0,0
2024-04-18,00:45,38.4,19.2,,38.4,45.7,3.8,3.2,157,0.0,0
2024-04-18,00:50,37.8,18.7,,37.8,45.7,3.6,2.3,159,0.0,0
2024-04-18,00:55,37.8,18.8,,37.8,46.1,4.5,3.6,164,0.0,0
2024-04-18,01:00,38.1,18.7,,38.1,45.2,5.3,3.9,165,0.0,0
2024-04-18,01:05,38.4,19.4,,38.4,45.9,5.3,3.9,164,0.0,0
2024-04-18,01:10,38.1,19.8,,38.1,47.3,5.2,3.1,163,0.0,0
2024-04-18,01:15,38.3,19.9,,38.3,47.2,3.6,2,155,0.0,0
2024-04-18,01:20,37.8,19.6,,37.8,47.6,3.2,2,356,0.0,0
2024-04-18,01:25,38.1,19.9,,38.1,47.5,1.8,0.9,2,0.0,0
2024-04-18,01:30,38.3,19.9,,38.3,47.1,2.5,1.1,161,0.0,0
2024-04-18,01:35,38.8,20,,38.8,46.5,4.9,3.9,166,0.0,0
2024-04-18,01:40,37.2,19.9,,37.2,49.2,4.6,2.9,149,0.0,0
2024-04-18,01:45,36.8,19.5,,36.8,49.2,3.1,2.3,137,0.0,0
2024-04-18,01:50,36.5,19.3,,36.5,49.3,3.2,2.4,132,0.0,0
2024-04-18,01:55,36.5,19.3,,36.5,49.3,5.9,3.5,120,0.0,0
2024-04-18,02:00,37.1,19.2,,37.1,48.1,4.5,2.8,241,0.0,0
2024-04-18,02:05,37.1,19.1,,37.1,47.8,6.3,3.2,207,0.0,0
2024-04-18,02:10,37.4,19.4,,37.4,47.8,4.2,2.5,199,0.0,0
2024-04-18,02:15,36.9,19.3,,36.9,48.4,3.5,2.2,191,0.0,0
2024-04-18,02:20,36.5,19,,36.5,48.6,4.5,2.3,197,0.0,0
2024-04-18,02:25,35.9,19,,35.9,50.0,4.9,4,193,0.0,0
2024-04-18,02:30,36.4,19.4,,36.4,49.8,4.3,3.3,184,0.0,0
2024-04-18,02:35,35.2,19.1,,35.2,51.6,3,1.5,210,0.0,0
2024-04-18,02:40,35.2,18.6,,35.2,50.5,4,1.8,205,0.0,0
2024-04-18,02:45,34.7,18.6,,34.7,51.3,3.8,2.8,173,0.0,0
2024-04-18,02:50,35.6,19.1,,35.6,50.8,3,2.3,206,0.0,0
2024-04-18,02:55,32.9,18.2,,32.9,54.2,3.8,2.3,218,0.0,0
2024-04-18,03:00,33.8,18,,33.8,52.1,3.4,1.8,192,0.0,0
2024-04-18,03:05,33,17.9,,33,53.4,6.5,4.3,170,0.0,0
2024-04-18,03:10,33.4,17.9,,33.4,52.5,7.2,3.8,175,0.0,0
2024-04-18,03:15,34.5,18.7,,34.5,52.2,3.4,2.9,166,0.0,0
2024-04-18,03:20,33.2,18.5,,33.2,54.4,4.7,2.8,163,0.0,0
2024-04-18,03:25,32.7,17.9,,32.7,54.1,4.7,2.6,172,0.0,0
2024-04-18,03:30,32.5,17.6,,32.5,54.0,5,3,207,0.0,0
2024-04-18,03:35,31.7,17.4,,31.7,55.1,4.3,2.8,201,0.0,0
2024-04-18,03:40,31.2,17.2,,31.2,55.9,4.1,3,208,0.0,0
2024-04-18,03:45,31.6,17.4,,31.6,55.2,4.8,3,182,0.0,0
2024-04-18,03:50,32,17.5,,32,54.7,4.5,2.6,185,0.0,0
2024-04-18,03:55,32.6,17.9,,32.6,54.3,5.9,3.8,169,0.0,0
2024-04-18,04:00,32.3,17.9,,32.3,55,5.3,2.4,271,0.0,0
2024-04-18,04:05,32.8,18.2,,32.8,54.5,2.9,1.6,279,0.0,0
2024-04-18,04:10,33.2,18.6,,33.2,54.7,9.2,4.6,321,0.0,0
2024-04-18,04:15,31.6,18.5,,31.6,58.0,5.9,3.1,208,0.0,0
2024-04-18,04:20,31.2,17.9,,31.2,57.5,3.2,2.5,166,0.0,0
2024-04-18,04:25,30.7,17.2,,30.7,57,2.9,1.9,179,0.0,0
2024-04-18,04:30,31.4,17.2,,31.4,55.3,4.1,2.2,164,0.0,0
2024-04-18,04:35,31.3,17.7,,31.3,56.6,3.3,2.3,182,0.0,0
2024-04-18,04:40,31.2,17.5,,31.2,56.4,2.8,1.7,175,0.0,0
2024-04-18,04:45,31.5,17.9,,31.5,56.8,1.6,1.2,148,0.0,0
2024-04-18,04:50,31.3,18.5,,31.3,58.6,2.1,1.4,157,0.0,0
2024-04-18,04:55,30.3,17.7,,30.3,59.0,3.2,1.7,176,0.0,0
2024-04-18,05:00,30.3,17.8,,30.3,59.2,4.6,2.6,193,0.0,0
2024-04-18,05:05,29.8,17.4,,29.8,59.3,5,3.7,190,0.0,0
2024-04-18,05:10,30.3,17.9,,30.3,59.6,3.8,3,180,0.0,0
2024-04-18,05:15,29.8,17.7,,29.8,60.0,3.6,2.8,180,0.0,0
2024-04-18,05:20,29.4,17.4,,29.4,60.3,6,4.5,177,0.0,0
2024-04-18,05:25,29.7,17.4,,29.7,59.7,5.8,3.5,170,0.0,0
2024-04-18,05:30,30.7,17.9,,30.7,58.6,2.8,1.7,183,0.0,0
2024-04-18,05:35,31.1,18.2,,31.1,58.5,1.8,0.9,189,0.0,0
2024-04-18,05:40,30.8,18.6,,30.8,60.2,3.2,2.3,161,0.0,0
2024-04-18,05:45,30.3,18,,30.3,60.0,3.7,3,194,0.0,0
2024-04-18,05:50,29.6,18.1,,29.6,61.8,2.7,2.1,194,0.0,0
2024-04-18,05:55,29.9,17.9,,29.9,60.6,2.8,2.2,168,0.0,0
2024-04-18,06:00,30,17.9,,30,60.4,2.2,1.1,270,0.0,0.0003
2024-04-18,06:05,30.3,18,,30.3,60.0,3.1,1.4,116,0.0,0.00078
2024-04-18,06:10,31,18.6,,31,59.7,2.5,1.7,105,0.0,0.00138
2024-04-18,06:15,30.5,18.7,,30.5,61.3,1.3,0.9,161,0.0,0.00204
2024-04-18,06:20,29.8,18.5,,29.8,62.4,2.8,1.8,169,0.0,0.0027
2024-04-18,06:25,29.1,17.9,,29.1,62.6,3.2,2.3,166,0.0,0.00336
2024-04-18,06:30,30.3,18.2,,30.3,60.3,5.7,4.3,175,0.0,0.0069
2024-04-18,06:35,31.4,18.7,,31.4,59.1,3.5,3,175,0.0,0.015
2024-04-18,06:40,32.3,19.4,,32.3,58.6,3.4,2.6,191,0.0,0.01836
2024-04-18,06:45,33.7,20.1,,33.7,57.2,4.3,2.5,214,0.0,0.02178
2024-04-18,06:50,35.2,21.3,,35.2,56.4,2.9,2.2,206,0.0,0.02526
2024-04-18,06:55,35.9,22,,35.9,56.5,1.9,1.3,322,0.0,0.0291
2024-04-18,07:00,37.3,22.4,,37.3,54.6,2.8,2,355,0.0,0.033
2024-04-18,07:05,37.7,22.9,,37.7,54.9,5.5,3.4,328,0.0,0.03702
2024-04-18,07:10,37.5,23.2,,37.5,56.0,4.7,3.7,330,0.0,0.04122
2024-04-18,07:15,38.6,23.4,,38.6,54.2,4.5,2.8,353,0.0,0.04548
2024-04-18,07:20,39.6,23.6,,39.6,52.4,5.4,3.2,329,0.0,0.04986
2024-04-18,07:25,40.2,24,,40.2,52.0,4,2.7,292,0.0,0.0543
2024-04-18,07:30,41.1,24.5,,41.1,51.5,5.1,2.6,299,0.0,0.05892
2024-04-18,07:35,41.6,24.7,,41.6,50.8,4.3,2.6,295,0.0,0.06396
2024-04-18,07:40,42.6,25.4,,42.6,50.2,3.4,2.6,282,0.0,0.06876
2024-04-18,07:45,43.3,26,,43.3,50.2,3.7,2.1,297,0.0,0.0738
2024-04-18,07:50,44.1,26.4,,44.1,49.5,3.9,2.2,268,0.0,0.0789
2024-04-18,07:55,45.2,26.8,,45.2,48.3,3.7,1.6,246,0.0,0.08442
2024-04-18,08:00,46.2,27.5,,46.2,47.9,3.4,2.1,256,0.0,0.08982
2024-04-18,08:05,47.7,27.8,,47.7,45.8,2.6,1.2,318,0.0,0.09528
2024-04-18,08:10,48.7,28.2,,48.7,44.8,3.1,1.5,315,0.0,0.10056
2024-04-18,08:15,49.9,28.7,,49.9,43.7,2.2,1,281,0.0,0.10614
2024-04-18,08:20,50.9,29.3,,50.9,43.2,4.3,1.6,5,0.0,0.11154
2024-04-18,08:25,51.6,29.6,,51.6,42.6,3.7,2,294,0.0,0.11688
2024-04-18,08:30,51.2,29.7,,51.2,43.5,6.3,3.5,321,0.0,0.1221
2024-04-18,08:35,52.8,29.4,,52.8,40.5,3.9,2.5,318,0.0,0.12756
2024-04-18,08:40,53.5,29.5,,53.5,39.5,3.7,2.6,284,0.0,0.13284
2024-04-18,08:45,54.4,30.2,,54.4,39.4,4.9,2.4,298,0.0,0.138